Location: Carbonear
(47.7333°N, 53.2500°W)
Time: 12:51:05
(UTC+00:00)

FO-99 - Visible Passes

Search period start: 08 December 2022 00:00
Search period end: 18 December 2022 00:00
Orbit: 447 x 470 km, 97.1° (Epoch: 07 December)

Date Brightness Start Highest point End Pass type
(mag) Time Alt. Az. Time Alt. Az. Time Alt. Az.
08 Dec ? 10:14:15 10° ENE 10:15:06 11° E 10:15:56 10° ESE visible
13 Dec ? 10:36:25 10° NE 10:39:01 20° E 10:41:36 10° SE visible
16 Dec ? 10:31:41 10° NE 10:34:05 17° E 10:36:27 10° SE visible
